Weather Roundup
Issued by NWS Springfield, MO

Home | Current Version | Previous Version | Text Only | Print | Product List | Glossary On
Versions: 1 2 3 4 5 6 7 8 9 10 11 12 13 14 15 16 17 18 19 20 21 22 23 24 25 26 27 28 29 30 31 32 33 34 35 36 37 38 39 40 41 42 43 44 45 46 47 48 49 50
257
NZUS99 KSGF 232107
HRRSGF

HOURLY WEATHER
NATIONAL WEATHER SERVICE SPRINGFIELD MO
300 PM CST THU FEB 23 2017

......SGF CWA......

CITY           SKY/WX    TMP DP  RH WIND       PRES   REMARKS
SPRINGFIELD    SUNNY     78  50  37 S21       29.44F
JOPLIN         MOSUNNY   82  47  29 SW18G29   29.41F
WEST PLAINS    SUNNY     76  53  44 S15G24    29.58F
ROLLA          SUNNY     67  55  65 SE18G29   29.52F
OSAGE BEACH    MOSUNNY   75  54  47 SE10G16   29.47F
BRANSON        PTSUNNY   77  48  36 S12G18    29.51F

......SURROUNDING SGF CWA......

CITY           SKY/WX    TMP DP  RH WIND       PRES   REMARKS
CHANUTE        PTSUNNY   77  49  37 S16       29.39F
PARSONS        MOSUNNY   79  50  36 S12       29.39F
COFFEYVILLE    MOSUNNY   80  50  34 S17       29.38F
EMPORIA        CLOUDY    68  51  54 SE12      29.37F
GROVE OK       PTSUNNY   82  50  32 S16G33    29.42F
ROGERS AR      PTSUNNY   79  49  34 S20G29    29.48F
SILOAM SPRINGS PTSUNNY   81  48  32 S21G32    29.46F
HARRISON AR    SUNNY     79  50  36 S20G28    29.53F
NEAR YELLVILLE SUNNY     79  50  36 S13G26    29.52F

......KANSAS AND MISSOURI......

CITY           SKY/WX    TMP DP  RH WIND       PRES   REMARKS
KANSAS CTY INT CLOUDY    51  43  74 E15       29.47F
DOWNTOWN KC    CLOUDY    55  44  66 NE12      29.46F
COLUMBIA       MOSUNNY   65  56  72 E15       29.49F
SEDALIA        PTSUNNY   68  54  60 E16G23    29.48F
ST JOSEPH      PTSUNNY   56  46  69 SE14      29.49S
ST LOUIS       CLOUDY    71  55  56 SE17G23   29.59F
SPIRIT OF STL  MOSUNNY   74  56  53 SE12G25   29.54F
KIRKSVILLE     CLOUDY    49  44  83 E14       29.56F
WICHITA        MOSUNNY   72  48  42 SE12      29.34F
TOPEKA         MOSUNNY   62  48  60 E13       29.42F
OLATHE         CLOUDY    56  47  71 E10       29.44F

......TENNESSEE......

CITY           SKY/WX    TMP DP  RH WIND       PRES   REMARKS
MEMPHIS        MOSUNNY   77  55  46 S10G22    29.69F
NASHVILLE      PTSUNNY   74  54  49 S13       29.77F

......ARKANSAS.......

CITY           SKY/WX    TMP DP  RH WIND       PRES   REMARKS
FAYETTEVILLE   PTSUNNY   77  52  41 S16       29.48F
FT SMITH       SUNNY     87  44  22 S15G23    29.48F
LITTLE ROCK    MOSUNNY   77  57  50 SE14      29.62F

......OKLAHOMA.......

CITY           SKY/WX    TMP DP  RH WIND       PRES   REMARKS
TULSA          PTSUNNY   84  44  24 S14G22    29.35F
PONCA CITY     MOSUNNY   82  45  27 S8        29.34F
MCALESTER      SUNNY     87  43  21 S18G32    29.44F
OKLAHOMA CITY  MOSUNNY   87  38  17 SW17      29.39F

......IOWA............

CITY           SKY/WX    TMP DP  RH WIND       PRES   REMARKS
DES MOINES     CLOUDY    46  37  71 NE17G24   29.61F
QUAD CITIES    LGT RAIN  50  43  77 E12       29.72S

......ILLINOIS........

CITY           SKY/WX    TMP DP  RH WIND       PRES   REMARKS
QUINCY         CLOUDY    52  47  83 E13       29.60F
CHICAGO        CLOUDY    42  35  76 NE13      29.81S




USA.gov is the U.S. government's official web portal to all federal, state and local government web resources and services.